Regional Weather Roundup
Issued by NWS

Home | Current Version | Previous Version | Graphics & Text | Print | Product List | Glossary On
Versions: 1 2 3 4 5 6 7 8 9 10 11 12 13 14 15 16 17 18 19 20 21 22 23 24 25 26 27 28 29 30 31 32 33 34 35 36 37 38 39 40 41 42 43 44 45 46 47 48 49 50
000
ASUS45 KPSR 241110
RWRAZ

ARIZONA REGIONAL HOURLY WEATHER ROUNDUP
NATIONAL WEATHER SERVICE PHOENIX AZ
400 AM MST THU APR 24 2014

NOTE: FAIR INDICATES FEW OR NO CLOUDS BELOW 12,000 FEET WITH NO
SIGNIFICANT WEATHER AND/OR OBSTRUCTIONS TO VISIBILITY.

AZZ001>003-036-241200-
NORTHWEST ARIZONA

CITY           SKY/WX    TMP DP  RH WIND       PRES   REMARKS
BULLHEAD CITY  PTCLDY    63  14  15 CALM      29.90S
KINGMAN        PTCLDY    50   8  18 CALM      29.99S
$$

AZZ004>008-015-016-018-241200-
NORTH CENTRAL ARIZONA

CITY           SKY/WX    TMP DP  RH WIND       PRES   REMARKS
GRAND CANYON   MOCLDY    23   9  55 CALM      30.11S
WILLIAMS       MOCLDY    30   9  40 SE12      30.18S WCI  21
PRESCOTT       PTCLDY    39  14  36 SW5       30.05F
FLAGSTAFF      MOCLDY    26  11  52 CALM      30.13S
PAYSON         PTCLDY    45  10  24 CALM      30.08R
PAGE           PTCLDY    47  11  23 SE3       30.06R
$$

AZZ009>014-017-241200-
NORTHEAST ARIZONA

CITY           SKY/WX    TMP DP  RH WIND       PRES   REMARKS
WINSLOW        PTCLDY    39  13  34 SE3       30.08R
SAINT JOHNS    MOCLDY    34  10  37 S3        30.08R
WINDOW ROCK    MOCLDY    22   8  55 CALM      30.11S
SHOW LOW       PTCLDY    32   9  37 S6        30.13R WCI  26
$$

AZZ023-241200-
GREATER PHOENIX AREA

CITY           SKY/WX    TMP DP  RH WIND       PRES   REMARKS
PHOENIX        CLEAR     65  24  21 E6        29.88R
BUCKEYE          N/A     52   9  17 N8        29.89S
LUKE AFB       NOT AVBL
DEER VALLEY    CLEAR     59  15  18 E6        29.88S
SCOTTSDALE     CLEAR     61  26  26 CALM      29.91R
MESA-GATEWAY   CLEAR     55  21  26 SE7       29.92R
$$

AZZ027-028-241200-
SOUTHWEST MARICOPA COUNTY AND PINAL COUNTY

CITY           SKY/WX    TMP DP  RH WIND       PRES   REMARKS
CASA GRANDE    CLEAR     52  12  20 N5        29.91S
$$

AZZ503-504-507>509-241200-
SOUTHEAST ARIZONA

CITY           SKY/WX    TMP DP  RH WIND       PRES   REMARKS
TUCSON         CLEAR     55  16  21 S6        29.97F
DAVIS-MONTHAN  CLEAR     55  14  20 SE6       29.96S
NOGALES        CLEAR     46  19  34 E5        30.01S
SIERRA VISTA   PTCLDY    55  10  16 SW8       30.04S
DOUGLAS        CLEAR     46  14  27 N5        30.03S
SAFFORD        CLEAR     49   7  18 SE6       29.97R
$$

AZZ020-021-025-026-031-241200-
SOUTHWEST ARIZONA

CITY           SKY/WX    TMP DP  RH WIND       PRES   REMARKS
YUMA           CLEAR     63  33  32 CALM      29.85S
$$

CAZ031-033-041-043-047-048-061-241200-
SOUTHERN CALIFORNIA

CITY           SKY/WX    TMP DP  RH WIND       PRES   REMARKS
DOWNTOWN L.A.  CLEAR     57  50  77 CALM      29.93S
L.A. AIRPORT   PTCLDY    57  49  74 CALM      29.94S
SAN DIEGO      PTCLDY    60  50  69 CALM      29.96S
BURBANK        CLEAR     54  37  52 CALM      29.93S
ONTARIO        CLEAR     56  41  57 E5        29.94F
RIVERSIDE      CLEAR     53  43  68 E3        29.95F
PALM SPRINGS   CLEAR     67  42  40 W6        29.89R
EL CENTRO NAS  CLEAR     63  40  42 SW6       29.83F
IMPERIAL       CLEAR     60  41  49 W3        29.83S
BLYTHE         CLEAR     64  13  13 NW3       29.86S
NEEDLES        CLEAR     63  11  13 S6        29.89F
$$

NVZ020-UTZ003-241200-
SOUTHERN NEVADA-UTAH

CITY           SKY/WX    TMP DP  RH WIND       PRES   REMARKS
LAS VEGAS      MOCLDY    61  14  16 S10       29.91S
SALT LAKE CITY PTCLDY    41  22  46 SE12      30.06S
$$

NMZ009-TXZ055-241200-
NEW MEXICO-WEST TEXAS

CITY           SKY/WX    TMP DP  RH WIND       PRES   REMARKS
ALBUQUERQUE    CLEAR     47  12  24 NW8       30.07R
EL PASO        PTCLDY    66  10  11 NE12      29.94R
$$


........................KEY........................
SKY/WX - SKY CONDITION/WEATHER
TMP    - TEMPERATURE IN FAHRENHEIT
DP     - DEW POINT IN FAHRENHEIT
RH     - RELATIVE HUMIDITY IN PERCENT
WIND   - DIRECTION AND SPEED IN MILES PER HOUR (MPH)
VRB    - VARIABLE WIND DIRECTION
PRES   - MEAN SEA LEVEL PRESSURE IN INCHES OF MERCURY
         F - FALLING PRESSURE   R - RISING PRESSURE
         S - STEADY PRESSURE
VSB    - VISIBILITY IN MILES
HX     - HEAT INDEX IN FAHRENHEIT
WCI    - WIND CHILL INDEX IN FAHRENHEIT
TC     - TEMPERATURE IN CELSIUS WHICH IS ALSO KNOWN AS
         TEMPERATURE IN CENTIGRADE
AFB    - AIR FORCE BASE
         LUKE AFB IS LUKE AIR FORCE BASE
         DAVIS-MONTHAN IS DAVIS-MONTHAN AIR FORCE BASE
NAS    - NAVAL AIR STATION
         EL CENTRO NAS IS EL CENTRO NAVAL AIR STATION
N/A    - NOT AVAILABLE



USA.gov is the U.S. government's official web portal to all federal, state and local government web resources and services.